Change the Weather History Date:

Saturday, April 27, 2013

  Actual Average (KAVL) Record (KAVL)
Temperature  
Mean Temperature 56 °F 58 °F  
Max Temperature 60 °F 71 °F 88 °F (1986)
Min Temperature 52 °F 46 °F 30 °F (1972)
Degree Days  
Heating Degree Days 9 7  
Month to date heating degree days 281  
Since 1 July heating degree days 4053  
Cooling Degree Days 0 0  
Month to date cooling degree days 0  
Year to date cooling degree days 1  
Growing Degree Days 6 (Base 50)    
Moisture  
Dew Point 49 °F    
Average Humidity 82    
Maximum Humidity 99    
Minimum Humidity 49    
Precipitation  
Precipitation 0.47 in 0.11 in 0.98 in (1912)
Month to date precipitation 3.00  
Year to date precipitation 14.26  
Snow  
Snow 0.00 in 0.00 in 0.30 in (1928)
Month to date snowfall 0.7  
Since 1 July snowfall 9.9  
Snow Depth -    
Sea Level Pressure  
Sea Level Pressure 30.33 in    
Wind  
Wind Speed 1 mph (SSE)    
Max Wind Speed 6 mph    
Max Gust Speed -    
Visibility 8 miles    
Events Rain    
T = Trace of Precipitation, MM = Missing Value Source: NWS Daily Summary

Daily Weather History Graph

Daily Weather History Graph

Search for Another Location

Airport or City:

Trip Planner

Search our weather history database for the weather conditions in past years. The results will help you decide how hot, cold, wet, or windy it might be!

Date:

Astronomy

Apr. 27, 2013 Rise Set
Actual Time 6:40 AM EDT 8:10 PM EDT
Civil Twilight 6:13 AM EDT 8:37 PM EDT
Nautical Twilight 5:41 AM EDT 9:10 PM EDT
Astronomical Twilight 5:07 AM EDT 9:44 PM EDT
Moon 10:34 PM EDT (4/27) 8:00 AM EDT (4/27)
Length of Visible Light 14h 24m
Length of Day
13h 30m
Waning Gibbous, 95% of the Moon is Illuminated
Apr 27
Waning Gibbous
May 2
Last Quarter
May 9
New
May 18
First Quarter
May 25
Full

Hourly Weather History & Observations

Time (EDT) Temp. Dew Point Humidity Pressure Visibility Wind Dir Wind Speed Gust Speed Precip Events Conditions
12:15 AM 57.0 °F 44.2 °F 62% 30.36 in 10.0 mi Calm Calm - N/A   Overcast
12:35 AM 56.3 °F 43.0 °F 61% 30.37 in 10.0 mi NNW 3.5 mph - N/A   Overcast
12:55 AM 58.3 °F 39.4 °F 49% 30.37 in 10.0 mi North 3.5 mph - N/A   Overcast
1:15 AM 57.9 °F 40.3 °F 52% 30.38 in 10.0 mi Calm Calm - N/A   Overcast
1:35 AM 57.4 °F 40.8 °F 54% 30.37 in 10.0 mi Calm Calm - N/A   Mostly Cloudy
1:55 AM 55.6 °F 44.2 °F 66% 30.37 in 10.0 mi Calm Calm - N/A   Mostly Cloudy
2:15 AM 56.7 °F 41.4 °F 57% 30.36 in 10.0 mi NNW 3.5 mph - N/A   Overcast
2:35 AM 56.5 °F 43.0 °F 61% 30.35 in 10.0 mi NNW 4.6 mph - N/A   Overcast
2:55 AM 57.2 °F 43.3 °F 60% 30.34 in 10.0 mi North 3.5 mph - N/A   Overcast
3:15 AM 56.1 °F 45.9 °F 68% 30.34 in 10.0 mi Calm Calm - N/A   Overcast
3:35 AM 54.5 °F 46.4 °F 74% 30.34 in 10.0 mi Calm Calm - N/A   Overcast
3:55 AM 55.8 °F 46.0 °F 70% 30.34 in 10.0 mi Calm Calm - N/A   Overcast
4:15 AM 55.4 °F 46.0 °F 71% 30.33 in 10.0 mi Calm Calm - N/A   Overcast
4:35 AM 54.3 °F 46.0 °F 74% 30.33 in 10.0 mi Calm Calm - N/A   Overcast
4:55 AM 54.7 °F 46.4 °F 74% 30.33 in 10.0 mi Calm Calm - N/A   Overcast
5:15 AM 54.3 °F 47.5 °F 78% 30.33 in 10.0 mi Calm Calm - N/A   Overcast
5:35 AM 54.1 °F 47.3 °F 78% 30.33 in 10.0 mi Calm Calm - N/A   Overcast
5:55 AM 53.6 °F 48.0 °F 81% 30.33 in 10.0 mi Calm Calm - N/A   Overcast
6:15 AM 54.5 °F 46.9 °F 76% 30.32 in 10.0 mi Calm Calm - N/A   Overcast
7:35 AM 54.3 °F 47.5 °F 78% 30.35 in 10.0 mi Calm Calm - N/A   Overcast
7:55 AM 53.6 °F 48.7 °F 84% 30.34 in 10.0 mi SSE 3.5 mph - N/A   Overcast
8:15 AM 54.5 °F 47.1 °F 76% 30.35 in 10.0 mi Calm Calm - N/A   Overcast
8:35 AM 54.5 °F 47.8 °F 78% 30.35 in 10.0 mi Calm Calm - N/A   Overcast
8:55 AM 55.4 °F 46.4 °F 72% 30.36 in 10.0 mi Calm Calm - N/A   Overcast
9:15 AM 55.0 °F 47.5 °F 76% 30.35 in 10.0 mi Calm Calm - N/A   Overcast
9:35 AM 55.9 °F 47.5 °F 73% 30.34 in 10.0 mi East 3.5 mph - N/A   Overcast
9:55 AM 56.5 °F 48.7 °F 75% 30.35 in 10.0 mi Calm Calm - N/A   Overcast
10:15 AM 56.7 °F 49.1 °F 76% 30.35 in 10.0 mi Calm Calm - N/A   Overcast
10:35 AM 57.2 °F 49.5 °F 75% 30.36 in 10.0 mi Calm Calm - N/A   Overcast
10:55 AM 57.4 °F 49.5 °F 75% 30.35 in 10.0 mi Calm Calm - N/A   Overcast
11:15 AM 58.3 °F 49.8 °F 73% 30.35 in 10.0 mi Calm Calm - N/A   Overcast
11:35 AM 59.7 °F 49.5 °F 69% 30.35 in 10.0 mi ESE 3.5 mph - N/A   Overcast
11:55 AM 60.3 °F 49.5 °F 68% 30.35 in 10.0 mi Calm Calm - N/A   Overcast
12:15 PM 60.1 °F 50.2 °F 70% 30.35 in 10.0 mi SSE 4.6 mph - N/A   Overcast
12:35 PM 59.9 °F 50.4 °F 71% 30.35 in 10.0 mi Calm Calm - N/A   Overcast
12:55 PM 59.0 °F 49.5 °F 71% 30.35 in 10.0 mi SSE 3.5 mph - N/A   Overcast
1:15 PM 59.4 °F 49.3 °F 69% 30.34 in 10.0 mi Calm Calm - N/A   Overcast
1:35 PM 58.3 °F 50.9 °F 76% 30.35 in 10.0 mi WSW 3.5 mph - N/A   Drizzle
1:55 PM 57.7 °F 51.1 °F 78% 30.37 in 10.0 mi West 4.6 mph - N/A Rain Light Rain
2:15 PM 56.7 °F 52.0 °F 84% 30.36 in 5.0 mi Calm Calm - 0.01 in Rain Rain
2:35 PM 55.8 °F 53.2 °F 91% 30.36 in 5.0 mi WSW 3.5 mph - 0.04 in Rain Rain
2:55 PM 55.4 °F 52.7 °F 91% 30.35 in 5.0 mi Calm Calm - 0.07 in Rain Rain
3:15 PM 55.0 °F 53.1 °F 93% 30.35 in 5.0 mi Calm Calm - 0.02 in Rain Rain
3:35 PM 54.1 °F 52.9 °F 95% 30.36 in 4.0 mi West 3.5 mph - 0.07 in Rain Rain
3:55 PM 54.0 °F 52.3 °F 94% 30.34 in 5.0 mi Calm Calm - 0.11 in Rain Light Rain
4:15 PM 53.6 °F 51.8 °F 94% 30.33 in 2.5 mi Calm Calm - 0.04 in Rain Rain
4:35 PM 54.0 °F 52.9 °F 96% 30.33 in 3.0 mi Calm Calm - 0.07 in Rain Rain
4:55 PM 54.0 °F 52.7 °F 95% 30.34 in 4.0 mi Calm Calm - 0.09 in Rain Rain
5:15 PM 54.0 °F 52.9 °F 96% 30.31 in 4.0 mi SE 5.8 mph - 0.02 in Rain Light Rain
5:35 PM 53.4 °F 52.5 °F 97% 30.32 in 4.0 mi Calm Calm - 0.03 in Rain Light Rain
5:55 PM 53.6 °F 52.5 °F 96% 30.31 in 5.0 mi SSE 3.5 mph - 0.03 in Rain Rain
6:15 PM 53.2 °F 52.2 °F 96% 30.31 in 5.0 mi Calm Calm - N/A Rain Light Rain
6:35 PM 53.1 °F 52.0 °F 96% 30.31 in 5.0 mi SSW 3.5 mph - 0.01 in Rain Light Rain
6:55 PM 52.9 °F 52.0 °F 97% 30.31 in 4.0 mi Calm Calm - 0.02 in Rain Rain
7:15 PM 52.9 °F 52.2 °F 97% 30.31 in 4.0 mi Calm Calm - 0.01 in Rain Rain
7:35 PM 52.9 °F 52.5 °F 99% 30.30 in 2.0 mi ESE 3.5 mph - 0.05 in Rain Rain
7:55 PM 52.9 °F 52.7 °F 99% 30.30 in 2.0 mi Calm Calm - 0.09 in Rain Rain
8:15 PM 52.9 °F 52.7 °F 99% 30.29 in 3.0 mi Calm Calm - 0.01 in Rain Light Rain
8:35 PM 52.9 °F 52.7 °F 99% 30.29 in 3.0 mi Calm Calm - 0.04 in Rain Rain
8:55 PM 53.1 °F 52.7 °F 99% 30.29 in 4.0 mi Calm Calm - 0.05 in Rain Rain
9:15 PM 52.9 °F 52.7 °F 99% 30.29 in 3.0 mi Calm Calm - N/A Rain Rain
9:35 PM 52.9 °F 52.7 °F 99% 30.29 in 4.0 mi Calm Calm - N/A   Overcast
9:55 PM 52.9 °F 52.7 °F 99% 30.29 in 4.0 mi North 3.5 mph - N/A   Light Drizzle
10:15 PM 52.7 °F 52.5 °F 99% 30.29 in 5.0 mi Calm Calm - 0.01 in Rain Rain
10:35 PM 52.7 °F 52.2 °F 98% 30.29 in 7.0 mi Calm Calm - 0.01 in   Overcast
10:55 PM 52.9 °F 52.3 °F 98% 30.28 in 7.0 mi Calm Calm - 0.01 in Rain Light Rain
11:15 PM 52.9 °F 52.2 °F 97% 30.27 in 7.0 mi Calm Calm - N/A   Overcast
11:35 PM 52.9 °F 52.2 °F 97% 30.27 in 7.0 mi Calm Calm - N/A   Overcast
11:55 PM 52.7 °F 52.2 °F 98% 30.27 in 5.0 mi Calm Calm - N/A   Overcast